Tracking 19800 objects as of 23-Jul-2019
HD Live streaming from Space Station
objects crossing your sky now

SATCOM 2R

Track SATCOM 2R now!
SATCOM 2R is classified as:


NORAD ID: 14328
Int'l Code: 1983-094A
Perigee: 35,962.5 km
Apogee: 36,113.6 km
Inclination: 15.4 °
Period: 1,448.6 minutes
Semi major axis: 42409 km
RCS: 4.023 m2 (large)
Launch date: September 8, 1983
Source: United States (US)
Launch site: AIR FORCE EASTERN TEST RANGE (AFETR)
aabbcc
Your satellite tracking list
Your tracking list is empty




NASA's NSSDC Master Catalog

Two Line Element Set (TLE):
1 14328U 83094A   19203.42908690 -.00000094  00000-0  00000+0 0  9998
2 14328  15.3688   6.5433 0017815  11.5290 168.1179  0.99406469130567
Source of the keplerian elements: AFSPC